This demonstration page uses our WeatherBlox Daily Observations layout. Learn more.

Left ArrowRight Arrow

36.17497, -115.13722

Hourly Observations for June 27, 2019

Temp ( °F °C ) Dew Point ( °F °C ) Humidity (%) Winds ( mph kmh ) Pressure ( in mb ) Visibility ( mi km ) Precip ( " mm )
12:53 am 00:53 Clear 84 28.9 33 0.6 16 16 S 10 17 29.82 1010 10 16 0.00 0.00
1:53 am 01:53 Clear 82 27.8 36 2.2 19 19 SSW 5 7 29.82 1010 10 16 0.00 0.00
2:53 am 02:53 Clear 78 25.6 35 1.7 21 21 E 7 11 29.83 1010 10 16 0.00 0.00
3:53 am 03:53 Clear 77 25 37 2.8 24 24 ESE 8 13 29.83 1010 10 16 0.00 0.00
4:53 am 04:53 Clear 77 25 38 3.3 24 24 SE 6 9 29.85 1011 10 16 0.00 0.00
5:53 am 05:53 Sunny 77 25 38 3.3 24 24 S 9 15 29.86 1011 10 16 0.00 0.00
6:53 am 06:53 Sunny 79 26.1 37 2.8 22 22 S 12 19 29.88 1012 10 16 0.00 0.00
7:53 am 07:53 Sunny 82 27.8 37 2.8 20 20 SSW 12 19 29.90 1012 10 16 0.00 0.00
8:53 am 08:53 Sunny 85 29.4 37 2.8 18 18 S 16 26 29.91 1013 10 16 0.00 0.00
9:53 am 09:53 Sunny 87 30.6 36 2.2 16 16 S 16 26 29.90 1013 10 16 0.00 0.00
10:53 am 10:53 Sunny 91 32.8 33 0.6 13 13 SSE 20 31 29.91 1013 10 16 0.00 0.00
11:53 am 11:53 Sunny 93 33.9 29 -1.7 10 10 SSW 17 28 29.90 1012 10 16 0.00 0.00
12:53 pm 12:53 Sunny 94 34.4 31 -0.6 11 11 S 14 22 29.88 1012 10 16 0.00 0.00
1:53 pm 13:53 Sunny 96 35.6 26 -3.3 8 8 SSW 20 31 29.87 1011 10 16 0.00 0.00
2:53 pm 14:53 Sunny 98 36.7 24 -4.4 7 7 WSW 17 28 29.85 1011 10 16 0.00 0.00
3:53 pm 15:53 Sunny 98 36.7 24 -4.4 7 7 SW 22 35 29.83 1010 10 16 0.00 0.00
4:53 pm 16:53 Sunny 98 36.7 22 -5.6 6 6 WSW 17 28 29.82 1010 10 16 0.00 0.00
5:53 pm 17:53 Sunny 97 36.1 23 -5 7 7 SW 17 28 29.81 1009 10 16 0.00 0.00
6:53 pm 18:53 Sunny 94 34.4 21 -6.1 7 7 W 14 22 29.81 1010 10 16 0.00 0.00
7:53 pm 19:53 Sunny 93 33.9 27 -2.8 9 9 WSW 9 15 29.82 1010 10 16 0.00 0.00
8:53 pm 20:53 Clear 91 32.8 30 -1.1 11 11 W 5 7 29.83 1010 10 16 0.00 0.00
9:53 pm 21:53 Clear 89 31.7 32 0 13 13 S 5 7 29.84 1011 10 16 0.00 0.00
10:53 pm 22:53 Clear 88 31.1 30 -1.1 12 12 S 9 15 29.84 1010 10 16 0.00 0.00
11:53 pm 23:53 Clear 87 30.6 30 -1.1 13 13 SSW 12 19 29.84 1010 10 16 0.00 0.00

Powered by AerisWeather